Atlanta Fulton, GA

10:23 AM EST on December 15, 2019 (GMT -0500)
Fulton County-Brown

Weather History for KFTY - November, 2019

Change the Weather History Date:

Thursday, November 14, 2019

  Actual Average Record
Temperature  
Mean Temperature 39 °F 54 °F  
Max Temperature 44 °F 65 °F 79 °F (2005)
Min Temperature 33 °F 42 °F 23 °F (2013)
Degree Days  
Heating Degree Days 26 12  
Month to date heating degree days 239 139  
Since 1 July heating degree days 310 282  
Moisture  
Dew Point 28 °F    
Average Humidity 71    
Maximum Humidity 93    
Minimum Humidity 48    
Precipitation  
Precipitation 0.21 in 0.13 in 1.03 in (2018)
Month to date precipitation 1.37 1.76  
Year to date precipitation 38.17 44.77  
Snow  
Snow 0.00 in - - ()
Month to date snowfall 0.0  
Since 1 July snowfall 0.0  
Since 1 September snowfall 0.0  
Snow Depth 0.00 in    
Sea Level Pressure  
Sea Level Pressure 30.29 in    
Wind  
Wind Speed 6 mph (NE)    
Max Wind Speed 14 mph    
Max Gust Speed 16 mph    
Visibility 9 miles    
Events Rain    
T = Trace of Precipitation, MM = Missing Value Source: NWS Daily Summary

Daily Weather History Graph

Daily Weather History Graph

Search for Another Location

Airport or City:

Astronomy

Nov. 14, 2019 Rise Set
Actual Time 7:08 AM EST 5:35 PM EST
Civil Twilight 6:42 AM EST 6:02 PM EST
Nautical Twilight 6:12 AM EST 6:32 PM EST
Astronomical Twilight 5:42 AM EST 7:01 PM EST
Moon 7:24 PM EST (11/14) 9:00 AM EST (11/14)
Length of Visible Light 11h 19m
Length of Day
10h 26m
Waning Gibbous, 95% of the Moon is Illuminated
Nov 14
Waning Gibbous
Nov 19
Last Quarter
Nov 26
New
Dec 4
First Quarter
Dec 12
Full

Hourly Weather History & Observations

Time (EST) Temp. Windchill Dew Point Humidity Pressure Visibility Wind Dir Wind Speed Gust Speed Precip Events Conditions
12:53 AM 37.0 °F 31.0 °F 19.0 °F 48% 30.34 in 10.0 mi East 8.1 mph - N/A   Clear
1:53 AM 36.0 °F 31.1 °F 19.9 °F 52% 30.33 in 10.0 mi ENE 5.8 mph - N/A   Clear
2:53 AM 34.0 °F 28.0 °F 21.0 °F 59% 30.30 in 10.0 mi NE 6.9 mph - N/A   Clear
3:37 AM 35.1 °F 28.6 °F 19.9 °F 54% 30.28 in 10.0 mi East 8.1 mph - N/A   Mostly Cloudy
3:53 AM 36.0 °F 32.1 °F 19.9 °F 52% 30.30 in 10.0 mi ENE 4.6 mph - N/A   Overcast
4:53 AM 36.0 °F 32.1 °F 21.0 °F 55% 30.30 in 10.0 mi NE 4.6 mph - N/A   Overcast
5:53 AM 37.0 °F 33.3 °F 21.0 °F 52% 30.32 in 10.0 mi ENE 4.6 mph - N/A   Overcast
6:53 AM 37.0 °F 31.0 °F 21.0 °F 52% 30.34 in 10.0 mi NNE 8.1 mph - N/A   Overcast
7:53 AM 37.0 °F 30.4 °F 19.9 °F 50% 30.34 in 10.0 mi ENE 9.2 mph - N/A   Overcast
8:53 AM 37.9 °F 32.1 °F 21.0 °F 51% 30.35 in 10.0 mi East 8.1 mph - N/A   Overcast
9:53 AM 39.9 °F 35.1 °F 24.1 °F 53% 30.34 in 10.0 mi East 6.9 mph - N/A   Overcast
10:53 AM 41.0 °F 35.8 °F 25.0 °F 53% 30.33 in 10.0 mi East 8.1 mph - N/A   Overcast
11:53 AM 42.1 °F 40.2 °F 27.0 °F 55% 30.32 in 10.0 mi Variable 3.5 mph - N/A   Overcast
12:53 PM 43.0 °F 38.8 °F 28.0 °F 56% 30.30 in 10.0 mi NNE 6.9 mph - N/A   Overcast
1:53 PM 43.0 °F 40.3 °F 28.9 °F 58% 30.28 in 10.0 mi ENE 4.6 mph - N/A   Overcast
2:53 PM 44.1 °F 40.8 °F 32.0 °F 63% 30.27 in 10.0 mi NNE 5.8 mph - 0.00 in Rain Light Rain
3:53 PM 43.0 °F 40.3 °F 32.0 °F 65% 30.26 in 10.0 mi NNE 4.6 mph - 0.00 in   Overcast
4:53 PM 43.0 °F 39.5 °F 30.9 °F 62% 30.27 in 10.0 mi NNE 5.8 mph - N/A   Overcast
5:53 PM 44.1 °F 42.5 °F 32.0 °F 63% 30.26 in 10.0 mi North 3.5 mph - N/A   Overcast
6:53 PM 44.1 °F 42.5 °F 32.0 °F 63% 30.26 in 10.0 mi North 3.5 mph - N/A   Overcast
7:53 PM 43.0 °F 41.3 °F 35.1 °F 74% 30.26 in 10.0 mi North 3.5 mph - 0.00 in Rain Light Rain
8:53 PM 42.1 °F 40.2 °F 37.9 °F 85% 30.26 in 10.0 mi NNE 3.5 mph - 0.02 in Rain Light Rain
9:53 PM 42.1 °F 39.2 °F 39.0 °F 89% 30.26 in 7.0 mi NNE 4.6 mph - 0.04 in Rain Light Rain
10:53 PM 41.0 °F 38.0 °F 39.0 °F 93% 30.25 in 5.0 mi North 4.6 mph - 0.06 in Rain Rain
11:33 PM 42.1 °F 38.4 °F 39.9 °F 92% 30.24 in 4.0 mi North 5.8 mph - 0.05 in Rain Rain
11:53 PM 42.1 °F 38.4 °F 39.9 °F 92% 30.25 in 5.0 mi North 5.8 mph - 0.08 in Rain Light Rain